Weather History for Tracy, MN

Change the Weather History Date:

Friday, January 18, 2013

  Actual Average (KMML) Record (KMML)
Temperature  
Mean Temperature 31 °F -  
Max Temperature 39 °F 24 °F 50 °F (1981)
Min Temperature 23 °F 3 °F -30 °F (1970)
Degree Days  
Heating Degree Days 34    
Moisture  
Dew Point 27 °F    
Average Humidity 78    
Maximum Humidity 89    
Minimum Humidity 66    
Precipitation  
Precipitation 0.00 in - - ()
Sea Level Pressure  
Sea Level Pressure 29.84 in    
Wind  
Wind Speed 15 mph (SW)    
Max Wind Speed 26 mph    
Max Gust Speed 31 mph    
Visibility 10 miles    
Events      
Averages and records for this station are not official NWS values.
T = Trace of Precipitation, MM = Missing Value Source: NWS Daily Summary

Daily Weather History Graph

Daily Weather History Graph

Search for Another Location

Airport:

Trip Planner

Search our weather history database for the weather conditions in past years. The results will help you decide how hot, cold, wet, or windy it might be!

Date:

Astronomy

Jan. 18, 2013 Rise Set
Actual Time 7:52 AM CST 5:13 PM CST
Civil Twilight 7:20 AM CST 5:45 PM CST
Nautical Twilight 6:45 AM CST 6:21 PM CST
Astronomical Twilight 6:10 AM CST 6:55 PM CST
Moon 11:13 AM CST (1/18) 12:22 AM CST (1/18)
Length of Visible Light 10h 24m
Length of Day
9h 20m
Waxing Crescent, 47% of the Moon is Illuminated
Jan 18
Waxing Crescent
Jan 18
First Quarter
Jan 26
Full
Feb 3
Last Quarter
Feb 10
New

Hourly Weather History & Observations

Time (CST) Temp. Windchill Dew Point Humidity Pressure Visibility Wind Dir Wind Speed Gust Speed Precip Events Conditions
12:17 AM 23.5 °F 12.4 °F 20.7 °F 89% 30.14 in 10.0 mi SSE 11.5 mph - N/A   Mostly Cloudy
12:38 AM 24.3 °F 11.7 °F 21.2 °F 88% 30.11 in 10.0 mi South 15.0 mph 20.7 mph N/A   Overcast
12:57 AM 24.8 °F 11.9 °F 21.7 °F 88% 30.09 in 10.0 mi South 16.1 mph 24.2 mph N/A   Overcast
1:17 AM 25.3 °F 11.8 °F 22.1 °F 87% 30.07 in 10.0 mi South 18.4 mph 26.5 mph N/A   Mostly Cloudy
1:38 AM 26.1 °F 12.0 °F 22.6 °F 87% 30.04 in 10.0 mi South 20.7 mph 26.5 mph N/A   Scattered Clouds
1:58 AM 26.6 °F 12.7 °F 23.0 °F 86% 30.03 in 10.0 mi South 20.7 mph 26.5 mph N/A   Clear
2:18 AM 26.6 °F 14.3 °F 23.0 °F 86% 30.02 in 10.0 mi South 16.1 mph 26.5 mph N/A   Clear
2:38 AM 26.6 °F 13.4 °F 23.4 °F 88% 30.00 in 10.0 mi South 18.4 mph 25.3 mph N/A   Mostly Cloudy
2:58 AM 27.1 °F 14.5 °F 23.9 °F 88% 29.99 in 10.0 mi SSW 17.3 mph 23.0 mph N/A   Overcast
3:17 AM 28.2 °F 15.2 °F 25.0 °F 88% 29.97 in 10.0 mi SSW 19.6 mph 25.3 mph N/A   Overcast
3:38 AM 30.0 °F 17.2 °F 26.2 °F 86% 29.96 in 10.0 mi SSW 20.7 mph 27.6 mph N/A   Overcast
3:57 AM 30.4 °F 17.7 °F 26.2 °F 85% 29.94 in 10.0 mi SSW 20.7 mph 28.8 mph N/A   Overcast
4:18 AM 30.2 °F 16.8 °F 25.7 °F 83% 29.92 in 10.0 mi SSW 23.0 mph 29.9 mph N/A   Mostly Cloudy
4:38 AM 30.6 °F 16.7 °F 25.7 °F 82% 29.91 in 10.0 mi SSW 25.3 mph 31.1 mph N/A   Clear
4:58 AM 30.9 °F 17.5 °F 25.7 °F 81% 29.89 in 10.0 mi SW 24.2 mph 29.9 mph N/A   Clear
5:17 AM 30.9 °F 17.2 °F 25.7 °F 81% 29.88 in 10.0 mi SW 25.3 mph 31.1 mph N/A   Scattered Clouds
5:38 AM 31.1 °F 17.2 °F 25.7 °F 80% 29.87 in 10.0 mi SW 26.5 mph 29.9 mph N/A   Clear
5:57 AM 31.1 °F 17.7 °F 25.7 °F 80% 29.86 in 10.0 mi SW 24.2 mph 28.8 mph N/A   Clear
6:17 AM 32.0 °F 18.6 °F 25.7 °F 78% 29.86 in 10.0 mi SW 25.3 mph - N/A   Clear
6:38 AM 32.0 °F 19.2 °F 25.7 °F 78% 29.85 in 10.0 mi SW 23.0 mph - N/A   Clear
6:58 AM 32.0 °F 19.8 °F 25.7 °F 78% 29.85 in 10.0 mi SW 20.7 mph 27.6 mph N/A   Clear
7:18 AM 32.0 °F 20.5 °F 25.7 °F 78% 29.85 in 10.0 mi SW 18.4 mph 25.3 mph N/A   Clear
7:37 AM 31.5 °F 19.4 °F 25.5 °F 79% 29.84 in 10.0 mi SW 19.6 mph - N/A   Clear
7:58 AM 31.1 °F 18.6 °F 25.2 °F 79% 29.83 in 10.0 mi SW 20.7 mph 26.5 mph N/A   Clear
8:18 AM 31.1 °F 18.6 °F 24.8 °F 77% 29.82 in 10.0 mi SW 20.7 mph - N/A   Clear
8:38 AM 31.1 °F 18.0 °F 24.8 °F 77% 29.82 in 10.0 mi SW 23.0 mph 28.8 mph N/A   Clear
8:58 AM 31.8 °F 19.0 °F 24.8 °F 75% 29.82 in 10.0 mi SW 23.0 mph 26.5 mph N/A   Clear
9:17 AM 32.0 °F 19.8 °F 25.2 °F 76% 29.82 in 10.0 mi SW 20.7 mph 25.3 mph N/A   Clear
9:38 AM 32.4 °F 20.3 °F 25.3 °F 75% 29.82 in 10.0 mi SW 20.7 mph 24.2 mph N/A   Clear
9:57 AM 33.4 °F 22.7 °F 25.7 °F 73% 29.82 in 10.0 mi SW 17.3 mph 23.0 mph N/A   Clear
10:18 AM 34.7 °F 23.4 °F 26.1 °F 71% 29.81 in 10.0 mi SW 20.7 mph 24.2 mph N/A   Clear
10:38 AM 35.6 °F 25.5 °F 26.2 °F 69% 29.80 in 10.0 mi SW 17.3 mph 26.5 mph N/A   Clear
10:57 AM 35.8 °F 25.4 °F 26.6 °F 69% 29.80 in 10.0 mi SW 18.4 mph 26.5 mph N/A   Clear
11:17 AM 36.7 °F 26.6 °F 27.1 °F 68% 29.79 in 10.0 mi SW 18.4 mph 25.3 mph N/A   Clear
11:38 AM 37.4 °F 27.5 °F 27.5 °F 67% 29.77 in 10.0 mi SW 18.4 mph 24.2 mph N/A   Clear
11:57 AM 37.6 °F 28.1 °F 27.5 °F 67% 29.77 in 10.0 mi SW 17.3 mph 24.2 mph N/A   Clear
12:18 PM 38.3 °F 29.7 °F 27.7 °F 66% 29.77 in 10.0 mi WSW 15.0 mph 21.9 mph N/A   Clear
12:37 PM 38.3 °F 28.4 °F 27.9 °F 66% 29.76 in 10.0 mi WSW 19.6 mph 25.3 mph N/A   Clear
12:58 PM 38.3 °F 28.7 °F 28.0 °F 67% 29.74 in 10.0 mi SW 18.4 mph 25.3 mph N/A   Clear
1:18 PM 39.2 °F 30.2 °F 28.6 °F 66% 29.74 in 10.0 mi WSW 17.3 mph 25.3 mph N/A   Clear
1:38 PM 39.2 °F 30.5 °F 29.1 °F 67% 29.74 in 10.0 mi WSW 16.1 mph - N/A   Clear
1:57 PM 39.4 °F 32.7 °F 28.9 °F 66% 29.76 in 10.0 mi WNW 10.4 mph - N/A   Clear
2:18 PM 39.6 °F - 29.8 °F 68% 29.77 in 10.0 mi Calm Calm - N/A   Clear
2:38 PM 39.6 °F 34.0 °F 29.5 °F 67% 29.76 in 10.0 mi West 8.1 mph - N/A   Clear
2:58 PM 39.4 °F - 29.5 °F 68% 29.76 in 10.0 mi Calm Calm - N/A   Clear
3:17 PM 39.6 °F 35.4 °F 29.8 °F 68% 29.77 in 10.0 mi West 5.8 mph - N/A   Clear
3:38 PM 39.2 °F 35.0 °F 29.8 °F 69% 29.78 in 10.0 mi NW 5.8 mph - N/A   Clear
3:57 PM 38.8 °F - 29.3 °F 69% 29.78 in 10.0 mi Calm Calm - N/A   Clear
4:18 PM 37.4 °F - 29.5 °F 73% 29.79 in 10.0 mi Calm Calm - N/A   Clear
4:38 PM 37.8 °F - 29.1 °F 71% 29.79 in 10.0 mi Calm Calm - N/A   Clear
4:58 PM 36.5 °F - 29.3 °F 75% 29.80 in 10.0 mi Calm Calm - N/A   Clear
5:18 PM 36.0 °F - 29.1 °F 76% 29.79 in 10.0 mi Calm Calm - N/A   Clear
5:38 PM 33.4 °F - 28.9 °F 84% 29.80 in 10.0 mi Calm Calm - N/A   Clear
5:58 PM 33.8 °F - 28.9 °F 82% 29.81 in 10.0 mi Calm Calm - N/A   Clear
6:18 PM 33.8 °F - 28.9 °F 82% 29.82 in 10.0 mi Calm Calm - N/A   Clear
6:37 PM 34.2 °F - 28.9 °F 81% 29.82 in 10.0 mi Calm Calm - N/A   Clear
6:58 PM 33.8 °F - 28.8 °F 82% 29.82 in 10.0 mi Calm Calm - N/A   Clear
7:17 PM 34.2 °F - 28.8 °F 81% 29.82 in 10.0 mi Calm Calm - N/A   Clear
7:38 PM 33.8 °F - 28.4 °F 81% 29.82 in 10.0 mi Calm Calm - N/A   Clear
7:57 PM 32.5 °F - 28.4 °F 85% 29.82 in 10.0 mi Calm Calm - N/A   Clear
8:18 PM 34.2 °F - 28.4 °F 79% 29.81 in 10.0 mi Calm Calm - N/A   Clear
8:38 PM 33.6 °F - 28.2 °F 81% 29.81 in 10.0 mi Calm Calm - N/A   Clear
8:58 PM 32.2 °F - 28.0 °F 85% 29.79 in 10.0 mi Calm Calm - N/A   Clear
9:18 PM 32.5 °F - 28.2 °F 84% 29.79 in 10.0 mi Calm Calm - N/A   Clear
9:37 PM 33.8 °F - 28.6 °F 81% 29.79 in 10.0 mi Calm Calm - N/A   Clear
9:57 PM 34.3 °F - 29.1 °F 81% 29.79 in 10.0 mi Calm Calm - N/A   Clear
10:18 PM 34.7 °F - 29.3 °F 81% 29.78 in 10.0 mi Calm Calm - N/A   Clear
10:38 PM 34.9 °F - 29.3 °F 80% 29.77 in 10.0 mi Calm Calm - N/A   Scattered Clouds
10:57 PM 35.6 °F 25.9 °F 29.7 °F 79% 29.77 in 10.0 mi SW 16.1 mph - N/A   Scattered Clouds
11:18 PM 36.0 °F 28.5 °F 29.7 °F 78% 29.76 in 10.0 mi SW 10.4 mph - N/A   Mostly Cloudy
11:37 PM 35.6 °F 28.0 °F 29.5 °F 78% 29.75 in 10.0 mi SW 10.4 mph - N/A   Mostly Cloudy
11:58 PM 36.0 °F 27.5 °F 29.3 °F 77% 29.75 in 10.0 mi SW 12.7 mph - N/A   Scattered Clouds